{"data":{"norad_id":57696,"intl_designator":"2023-127A","name":"JILIN-1 KUANFU 02A","alt_names":[],"object_type":"PAYLOAD","status":"ACTIVE","operator":null,"country":"PRC","launch_date":"2023-08-25","launch_site_code":"JSC","launch_vehicle":null,"mission":null,"orbit_class":"UNKNOWN","rcs_meters":null,"size_class":null,"mass_kg":null,"dimensions":null,"purposes":[],"wikipedia_slug":null,"has_3d_model":false,"image_url":null,"decayed_at":null,"tle_current":{"epoch":"2026-09-22T21:41:53.138400Z","epoch_age_seconds":98512,"freshness":"FRESH","line1":"1 57696U 23127A   26265.90408725  .00002155  00000+0  13842-3 0  9997","line2":"2 57696  97.5555 358.4652 0012784 332.4614  27.5937 15.09449076170386","mean_motion":15.09449076,"eccentricity":0.0012784,"inclination_deg":97.5555,"raan_deg":358.4652,"arg_perigee_deg":332.4614,"mean_anomaly_deg":27.5937,"bstar":0.00013842,"rev_number":17038,"period_min":95.399044783674,"perigee_km":529.04087424545,"apogee_km":546.72375242578,"semimajor_km":6916.0193133356,"source":"CELESTRAK","updated_at":"2026-09-23T09:00:18.295666Z"}}}